Tracking 17145 objects as of 30-May-2015
HD Live streaming from Space Station

SL-8 DEB

Track SL-8 DEB now!
10-day predictions
SL-8 DEB is classified as:


NORAD ID: 21250
Int'l Code: 1991-009BH
Perigee: 1,494.0 km
Apogee: 1,717.9 km
Inclination: 74.1 °
Period: 118.2 minutes
Semi major axis: 7976 km
RCS: 0.1024 m2 (medium)
Launch date: February 12, 1991
Source: Commonwealth of Independent States (former USSR) (CIS)

Note: This is SATELLITE DEBRIS
Your satellite tracking list
Your tracking list is empty





NASA's NSSDC Master Catalog

Two Line Element Set (TLE):
1 21250U 91009BH  15149.80809313  .00000086  00000-0  96919-3 0  9992
2 21250 074.0621 265.3334 0140345 289.4197 197.2957 12.18555147 77851

Source of the keplerian elements: AFSPC

N2YO: 289